sat.trackr.live / text

‹ back to catalog

STARLINK-35674

NORAD 67117 · 2025-299R

PAYLOAD ACTIVE UNKNOWN

§ Identity

Operator
Country
US
Launch date
2025-12-15
Launch site
AFETR
Launch vehicle
Mass (kg)
RCS (m²)

Purposes: comms

External: N2YO · Heavens-Above · Gunter

§ Orbital elements

Epoch: 2026-05-24T21:52:07.148640Z

Period
94.27 min
Inclination
42.9997°
Eccentricity
0.0000667
Mean motion
15.27594875 rev/d
Perigee alt
482.5 km
Apogee alt
483.5 km
Semi-major
6,861.1 km
B*
5.9488e-4
RAAN
98.5061°
Arg perigee
252.3266°
Mean anomaly
107.7513°
Rev number
2,477

§ Raw data

STARLINK-356741 67117U 25299R   26144.91119385  .00016151  00000+0  59488-3 0  99932 67117  42.9997  98.5061 0000667 252.3266 107.7513 15.27594875 24775

JSON: /api/v1/satellites/67117 · /tle

For live sub-satellite position, see the globe view (requires WebGL).

§ Visibility from observer

Set your observer location to see the next 7 days of passes ≥ 10°. The values pass through the URL so the page stays shareable.

No JS? Fill the form by hand. The geolocation button needs JavaScript.